Home   Weather   Oklahoma City   Past weeks

Flag for USA Past Weather in Oklahoma City, Oklahoma, USA — Yesterday and Last 2 Weeks

Now
48 °F

Low clouds.


Feels Like: 40 °F
Forecast: 48 / 63 °F
Wind: 25 mph from North

Location: Will Rogers World Airport

Current Time: Apr 29, 2017 at 10:35:32 am

Latest Report: Apr 29, 2017 at 9:52 am


Visibility: 10 mi

Pressure: 29.63 "Hg

Humidity: 96%

Dew Point: 47 °F

Location of Oklahoma CityLocation

Past Weather in Oklahoma City — Graph

°F

Oklahoma City Temperature Yesterday

Maximum temperature yesterday: 77 °F (at 4:52 pm)
Minimum temperature yesterday: 55 °F (at 5:52 am)
Average temperature yesterday: 67 °F

High & Low Weather Summary for the Past Weeks

 TemperatureHumidityPressure
High85 °F (Apr 25, 1:52 pm)100% (Apr 18, 1:52 am)30.19 "Hg (Apr 18, 1:52 am)
Low39 °F (Apr 27, 2:52 am)27% (Apr 23, 5:52 pm)29.31 "Hg (Apr 25, 4:52 pm)
Average62 °F76%29.85 "Hg
* Reported Apr 14 8:52 am — Apr 29 8:52 am, Oklahoma City, Weather by CustomWeather, © 2017

Note: Actual official high and low records may vary slightly from our data, if they occured in-between our weather recording intervals... More about our weather records

Advertising

Oklahoma City Weather History for the Previous 24 Hours

Scroll right to see more
 ConditionsComfort  
Time TempWeatherWind HumidityBarometerVisibility
8:52 am
Sat, Apr 29
48 °FLow clouds.20 mph96%29.62 "Hg10 mi
7:52 am48 °FMostly cloudy.22 mphN/A29.65 "Hg10 mi
6:52 am49 °FThunderstorms. Mostly cloudy.36 mph97%29.63 "Hg7 mi
6:36 am50 °FThunderstorms. Fog.26 mph96%29.65 "Hg5 mi
6:17 am52 °FStrong thunderstorms. Fog.32 mph97%29.65 "Hg1 mi
6:01 am56 °FThunderstorms. Fog.21 mph97%29.57 "Hg5 mi
5:37 am57 °FStrong thunderstorms. Fog.21 mph93%29.55 "Hg4 mi
5:22 am59 °FStrong thunderstorms. Fog.8 mph93%29.55 "Hg1 mi
4:56 am57 °FThundershowers. Low clouds.29 mph96%29.48 "Hg10 mi
4:14 am58 °FRain. Low clouds.16 mph93%29.57 "Hg8 mi
3:59 am58 °FStrong thunderstorms. Fog.25 mph93%29.62 "Hg3 mi
3:38 am60 °FThundershowers. Low clouds.12 mph96%29.59 "Hg10 mi
3:15 am60 °FLight rain. Low clouds.18 mph96%29.56 "Hg10 mi
2:08 am66 °FThundershowers. Mostly cloudy.22 mph90%29.53 "Hg10 mi
1:52 am66 °FMostly cloudy.18 mph90%29.52 "Hg10 mi
12:52 am67 °FMostly cloudy.17 mph87%29.55 "Hg10 mi
11:52 pm
Fri, Apr 28
68 °FMostly cloudy.14 mph82%29.61 "Hg10 mi
11:03 pm69 °FMostly cloudy.13 mph79%29.67 "Hg10 mi
9:52 pm70 °FMostly cloudy.13 mph76%29.64 "Hg10 mi
8:52 pm70 °FOvercast.9 mph76%29.63 "Hg10 mi
7:52 pm72 °FOvercast.9 mph71%29.62 "Hg10 mi
6:52 pm74 °FPartly sunny.8 mph62%29.61 "Hg10 mi
5:52 pm76 °FBroken clouds.12 mph58%29.59 "Hg10 mi
4:52 pm77 °FPartly sunny.9 mph52%29.58 "Hg10 mi
3:52 pm76 °FBroken clouds.7 mph50%29.57 "Hg10 mi
2:52 pm75 °FBroken clouds.8 mph50%29.59 "Hg10 mi
1:52 pm76 °FBroken clouds.8 mph52%29.59 "Hg10 mi
12:52 pm75 °FBroken clouds.10 mph54%29.60 "Hg10 mi
11:52 am73 °FBroken clouds.8 mph55%29.61 "Hg10 mi
10:52 am69 °FBroken clouds.7 mph73%29.59 "Hg10 mi
Weather by CustomWeather, © 2017

See weather overviewHow to use our weather pages